Tracking 29090 objects as of 15-Jul-2024
HD Live streaming from Space Station
objects crossing your sky now

THOR BURNER 2 R/B

Track THOR BURNER 2 R/B now!
10-day predictions


NORAD ID: 4954
Int'l Code: 1971-012B
Perigee: 742.6 km
Apogee: 795.1 km
Inclination: 98.4 °
Period: 100.1 minutes
Semi major axis: 7139 km
RCS: 1.7004 m2 (large)
Launch date: February 17, 1971
Source: United States (US)
Launch site: AIR FORCE WESTERN TEST RANGE (AFWTR)

Note: This is a ROCKET BODY
Your satellite tracking list
Your tracking list is empty




NASA's NSSDC Master Catalog

Two Line Element Set (TLE):
1 04954U 71012B   24196.87954117  .00000445  00000-0  15680-3 0  9993
2 04954  98.4159  56.1549 0036823 179.3626 180.7615 14.39027503794839
Source of the keplerian elements: AFSPC